Starlink 32175

operational
NORAD ID: 60339 Int'l Des: 2024-136 Owner: SPXS Country: US Constellation: starlink
LEOCIRCULAR

Starlink 32175について

説明を読み込み中...

リアルタイム位置

3D地球を読み込み中...

次回通過

高度履歴

Altitude vs Time

uPlot chart will show altitude changes over time

軌道要素

1 60339U 24136L 25353.54528639 .00000695 00000-0 35604-4 0 9999
2 60339 53.1618 87.9632 0001166 83.7890 276.3244 15.30185872 77395
Epoch: Dec 19, 2025 • Age: 9 hours

現在のステータス

高度 492.5 km
速度 7.62 km/s
衛星直下点 -48.09°S, 31.59°W
打ち上げ日 Aug 2, 2024
運用期間 1.3 years
タイプ internet

技術仕様

分類 Payload
質量 730.00 kg
乾燥質量 700.00 kg
総質量 730.00 kg
長さ 0.30 m
直径 4.10 m
スパン 29.00 m
形状 Box + pan
製造者 SPXS
バスタイプ Starlink V2M
フェーズステータス In Orbit
所有者/国 SPXS/US

大規模コンステレーション

Loading constellations...